Waarnemingen

Advertentie
Mijn weer
Angermünde, Duitsland (10291): temperatuur & dauwpunt: 14.10.2018 21:00:00 - 20.10.2018 21:00:00 (CEST)Angermünde, Duitsland (10291): temperatuur 5cm & temperatuur -5cm: 14.10.2018 21:00:00 - 20.10.2018 21:00:00 (CEST)Angermünde, Duitsland (10291): temperatuur -20cm & temperatuur -100cm: 14.10.2018 21:00:00 - 20.10.2018 21:00:00 (CEST)Angermünde, Duitsland (10291): windsnelheid & windstoten: 14.10.2018 21:00:00 - 20.10.2018 21:00:00 (CEST)Angermünde, Duitsland (10291): windrichting: 14.10.2018 21:00:00 - 20.10.2018 21:00:00 (CEST)Angermünde, Duitsland (10291): luchtdruk: 14.10.2018 21:00:00 - 20.10.2018 21:00:00 (CEST)Angermünde, Duitsland (10291): zicht: 14.10.2018 21:00:00 - 20.10.2018 21:00:00 (CEST)Angermünde, Duitsland (10291): Zonneschijnduur: 14.10.2018 21:00:00 - 20.10.2018 21:00:00 (CEST)Angermünde, Duitsland (10291): neerslag: 14.10.2018 21:00:00 - 20.10.2018 21:00:00 (CEST)
Datum & Tijd tt [°C] td [°C] tt 5cm [°C] tt -5cm [°C] tt -20cm [°C] tt -100cm [°C] ff [km/u] ff [kn] fx [km/u] fx [kn] dd ppp [hPa] vv [km] sd [min] rr [mm]
20.10.2018 21:00:00 8,7 4,3 7,8 10,0 11,6 13,6 11 6 18 10 W 1027,9 42 0 0,0
20.10.2018 20:00:00 8,9 4,3 7,3 10,7 11,7 13,6 11 6 19 10 WZW 1027,9 41 0 0,0
20.10.2018 19:00:00 9,9 4,5 9,4 11,1 11,8 13,6 12 6 21 12 W 1027,8 42 0 0,0
20.10.2018 18:00:00 10,1 4,0 9,3 11,9 11,8 13,6 13 7 26 14 W 1027,8 45 0 0,0
20.10.2018 17:00:00 11,0 3,8 11,3 12,5 11,7 13,6 13 7 27 15 W 1027,9 53 0 0,0
20.10.2018 16:00:00 12,0 3,5 13,7 13,0 11,5 13,6 17 9 27 14 W 1027,8 44 17 0,0
20.10.2018 15:00:00 12,0 3,2 13,4 13,0 11,2 13,6 22 12 32 18 WNW 1028,1 41 42 0,0
20.10.2018 14:00:00 12,7 3,2 14,8 12,5 10,8 13,6 20 11 29 16 WNW 1028,2 36 7 0,0
20.10.2018 13:00:00 12,7 2,5 14,2 11,6 10,5 13,7 18 10 28 15 WNW 1028,1 29 53 0,0
20.10.2018 12:00:00 12,4 2,2 15,0 10,5 10,3 13,7 17 9 29 16 W 1028,3 16 58 0,0
20.10.2018 11:00:00 11,0 2,9 13,1 9,2 10,2 13,7 16 9 23 12 W 1028,2 14 60 0,0
20.10.2018 10:00:00 7,7 4,1 7,5 8,5 10,2 13,7 10 6 19 10 W 1027,9 16 1 0,0
20.10.2018 09:00:00 7,2 4,6 7,0 7,9 10,2 13,7 10 6 15 8 W 1027,4 19 0 0,0
20.10.2018 08:00:00 5,6 3,8 4,5 7,7 10,3 13,7 9 5 16 8 W 1027,2 27 0 0,0
20.10.2018 07:00:00 5,0 3,6 2,8 8,0 10,4 13,7 8 4 13 7 WZW 1026,8 28 0 0,0
20.10.2018 06:00:00 6,1 4,9 5,4 8,3 10,4 13,7 7 4 11 6 WZW 1026,8 27 0 0,0
20.10.2018 05:00:00 6,0 5,2 5,5 8,1 10,5 13,7 8 4 10 5 WNW 1026,8 19 0 0,0
20.10.2018 04:00:00 5,0 4,5 4,8 7,8 10,6 13,7 7 4 9 5 W 1026,4 17 0 0,0
20.10.2018 03:00:00 4,2 3,9 3,9 7,4 10,8 13,7 8 5 12 6 W 1026,6 13 0 0,0
20.10.2018 02:00:00 3,3 3,2 2,5 7,4 11,1 13,7 10 5 12 6 WNW 1026,4 16 0 0,0
20.10.2018 01:00:00 2,6 2,6 0,7 7,6 11,4 13,7 7 4 8 4 W 1026,2 0,5 0 0,0
20.10.2018 00:00:00 4,1 3,8 0,3 8,1 11,7 13,7 4 2 10 5 W 1026,2 17 0 0,0
19.10.2018 23:00:00 4,5 4,0 1,4 8,7 11,9 13,7 6 3 9 5 WNW 1026,3 24 0 0,0
19.10.2018 22:00:00 5,4 4,3 1,7 9,3 12,2 13,7 7 4 9 5 WNW 1026,2 36 0 0,0
19.10.2018 21:00:00 6,0 4,8 3,9 9,9 12,5 13,7 8 5 9 5 W 1025,9 40 0 0,0
19.10.2018 20:00:00 6,8 5,4 3,1 10,7 12,8 13,7 7 4 9 5 WNW 1025,5 20 0 0,0
19.10.2018 19:00:00 8,2 5,3 5,0 11,7 13,0 13,7 8 4 9 5 WNW 1025,2 51 0 0,0
19.10.2018 18:00:00 11,5 5,1 8,8 13,0 13,0 13,7 6 3 13 7 NNW 1024,6 25 34 0,0
19.10.2018 17:00:00 13,3 5,5 15,4 13,9 12,9 13,7 9 5 19 11 N 1024,5 55 60 0,0
19.10.2018 16:00:00 14,0 4,5 16,3 14,5 12,6 13,7 13 7 22 12 NNW 1024,8 33 60 0,0
19.10.2018 15:00:00 14,3 5,6 19,0 14,7 12,2 13,7 8 5 22 12 NW 1025,2 34 60 0,0
19.10.2018 14:00:00 14,0 6,3 17,6 13,8 11,9 13,7 14 7 23 12 NW 1025,3 30 60 0,0
19.10.2018 13:00:00 13,0 6,7 17,7 12,7 11,5 13,7 11 6 16 9 NNW 1025,6 29 56 0,0
19.10.2018 12:00:00 11,8 7,0 14,6 11,7 11,3 13,7 13 7 19 10 NNW 1026,0 34 60 0,0
19.10.2018 11:00:00 10,9 7,1 14,4 10,2 11,2 13,7 11 6 18 10 NNW 1025,9 45 60 0,0
19.10.2018 10:00:00 9,0 6,7 11,2 9,0 11,3 13,7 10 6 15 8 NNW 1025,5 24 49 0,0
19.10.2018 09:00:00 6,2 5,9 5,4 8,6 11,4 13,8 13 7 15 8 WNW 1025,3 27 2 0,0
19.10.2018 08:00:00 5,5 5,2 4,6 8,5 11,7 13,8 11 6 15 8 WNW 1024,9 26 0 0,0
19.10.2018 07:00:00 5,2 5,0 2,7 9,0 12,0 13,8 9 5 11 6 NW 1024,5 25 0 0,0
19.10.2018 06:00:00 5,8 5,4 3,7 9,6 12,2 13,8 7 4 13 7 NW 1024,3 28 0 0,0
19.10.2018 05:00:00 6,6 5,9 5,1 10,3 12,4 13,8 10 6 16 9 NW 1024,2 34 0 0,0
19.10.2018 04:00:00 7,4 6,4 6,2 10,9 12,5 13,8 13 7 15 8 NW 1024,2 33 0 0,0
19.10.2018 03:00:00 8,5 7,2 7,9 11,3 12,7 13,8 13 7 16 8 NW 1024,4 39 0 0,0
19.10.2018 02:00:00 9,1 7,2 8,6 11,8 12,8 13,8 9 5 26 14 NW 1024,3 39 0 0,0
19.10.2018 01:00:00 10,3 7,7 10,1 12,1 12,8 13,8 17 9 24 13 NNW 1024,2 43 0 0,0
19.10.2018 00:00:00 11,1 8,4 10,8 12,5 12,9 13,8 14 8 26 14 NNW 1024,1 39 0 0,0
18.10.2018 23:00:00 12,1 9,1 11,9 12,7 13,0 13,8 18 10 28 15 NNW 1023,7 39 0 0,0
18.10.2018 22:00:00 12,3 10,1 12,2 12,9 13,0 13,8 16 8 25 13 NNW 1023,4 29 0 0,0
18.10.2018 21:00:00 12,8 10,6 12,6 13,1 13,1 13,8 13 7 31 17 NNW 1023,0 18 0 0,0
18.10.2018 20:00:00 13,0 11,3 12,8 13,3 13,1 13,8 14 7 24 13 NNW 1022,3 8 0 0,0
18.10.2018 19:00:00 12,9 12,0 12,9 13,6 13,1 13,8 12 6 26 14 NNW 1022,0 3,9 0 0,0
18.10.2018 18:00:00 13,2 12,6 13,1 14,0 13,1 13,8 17 9 25 14 NNW 1021,3 3,2 0 0,0
18.10.2018 17:00:00 13,8 12,8 13,9 14,4 13,0 13,8 16 8 27 15 NNW 1021,0 3,4 0 0,0
18.10.2018 16:00:00 14,6 12,2 15,0 15,0 12,7 13,8 14 8 24 13 NNW 1020,8 6 0 0,0
18.10.2018 15:00:00 14,8 11,5 16,3 15,3 12,3 13,8 21 11 27 15 WNW 1020,6 6 30 0,0
18.10.2018 14:00:00 16,0 10,9 19,9 14,5 11,9 13,9 9 5 29 16 NW 1020,3 8 59 0,0
18.10.2018 13:00:00 16,4 10,1 19,0 13,7 11,5 13,9 14 8 19 11 NNW 1020,5 6 41 0,0
18.10.2018 12:00:00 16,1 10,3 17,3 12,8 11,1 13,9 9 5 14 7 WNW 1020,2 5 27 0,0
18.10.2018 11:00:00 15,1 10,5 18,0 11,1 10,9 13,9 5 3 10 5 ZW 1020,1 5 60 0,0
18.10.2018 10:00:00 11,8 9,3 12,8 9,3 10,8 13,9 2 1 9 5 ZW 1020,0 3,3 60 0,0
18.10.2018 09:00:00 6,2 5,6 6,7 8,2 10,9 13,9 5 3 9 5 W 1020,3 2,1 29 0,0
18.10.2018 08:00:00 5,1 5,1 3,0 8,1 11,1 13,9 4 2 5 3 Z 1020,0 1,1 0 0,0
18.10.2018 07:00:00 5,5 5,5 3,2 8,3 11,3 13,9 3 1 8 4 WNW 1019,6 1,1 0 0,0
18.10.2018 06:00:00 5,7 5,7 2,7 8,6 11,5 13,9 3 2 4 2 Z 1019,5 2,2 0 0,0
18.10.2018 05:00:00 6,3 6,3 3,5 8,8 11,6 13,9 5 3 7 4 W 1019,4 0,3 0 0,0
18.10.2018 04:00:00 6,3 6,3 4,1 9,1 11,8 13,9 4 2 5 3 W 1019,7 0,2 0 0,0
18.10.2018 03:00:00 6,1 6,1 3,8 9,4 12,0 13,9 4 2 6 4 W 1019,7 0,2 0 0,0
18.10.2018 02:00:00 7,3 7,2 5,5 9,7 12,2 13,9 5 3 9 5 W 1019,8 1,1 0 0,0
18.10.2018 01:00:00 7,8 7,7 5,0 10,0 12,4 13,9 3 2 8 4 WNW 1019,9 2,4 0 0,0
18.10.2018 00:00:00 8,8 8,4 5,0 10,4 12,7 13,9 4 2 8 4 OZO 1019,9 4,9 0 0,0
17.10.2018 23:00:00 8,6 8,3 5,8 10,9 12,9 13,9 6 4 8 4 NW 1020,2 3,8 0 0,0
17.10.2018 22:00:00 9,2 8,9 6,1 11,4 13,1 13,9 3 2 6 3 WNW 1020,2 3,3 0 0,0
17.10.2018 21:00:00 10,1 9,0 6,7 11,9 13,4 13,9 2 1 4 2 Z 1019,9 6 0 0,0
17.10.2018 20:00:00 11,2 9,2 7,7 12,7 13,5 13,9 0 0 4 2 N 1019,7 9 0 0,0
17.10.2018 19:00:00 13,1 9,6 10,4 13,6 13,6 13,9 2 1 5 3 ZW 1019,5 13 0 0,0
17.10.2018 18:00:00 17,2 9,4 12,8 14,8 13,6 13,9 4 2 8 5 Z 1019,1 19 33 0,0
17.10.2018 17:00:00 19,3 8,7 19,2 15,6 13,3 13,9 7 4 13 7 OZO 1018,8 18 60 0,0
17.10.2018 16:00:00 19,7 8,1 21,4 16,0 13,0 13,9 6 4 12 6 OZO 1018,9 18 60 0,0
17.10.2018 15:00:00 19,7 8,4 22,2 15,9 12,5 14,0 9 5 14 8 OZO 1019,1 15 60 0,0
17.10.2018 14:00:00 18,5 8,1 21,5 15,1 12,0 14,0 9 5 13 7 OZO 1019,4 16 60 0,0
17.10.2018 13:00:00 17,3 8,4 20,1 13,8 11,6 14,0 10 5 14 8 OZO 1019,8 16 60 0,0
17.10.2018 12:00:00 16,1 8,8 18,8 12,2 11,2 14,0 4 2 8 4 ZO 1020,1 10 60 0,0
17.10.2018 11:00:00 13,4 8,4 15,7 10,5 11,0 14,0 4 2 10 5 ZO 1020,3 9 60 0,0
17.10.2018 10:00:00 10,2 7,4 11,5 9,1 11,0 14,0 2 1 3 2 OZO 1020,3 8 60 0,0
17.10.2018 09:00:00 6,4 5,6 7,4 8,2 11,2 14,0 0 0 6 3 N 1020,3 6 40 0,0
17.10.2018 08:00:00 5,6 5,4 3,1 8,2 11,3 14,0 2 1 7 4 ZO 1020,1 3,3 0 0,0
17.10.2018 07:00:00 4,6 4,5 2,7 8,4 11,5 14,0 2 1 4 2 Z 1019,8 3,3 0 0,0
17.10.2018 06:00:00 5,7 5,6 3,6 8,7 11,7 14,0 4 2 7 4 NW 1019,7 3,6 0 0,0
17.10.2018 05:00:00 6,1 5,9 4,5 8,9 11,9 14,0 4 2 6 4 ZW 1019,3 1,9 0 0,0
17.10.2018 04:00:00 6,5 6,4 3,5 9,2 12,1 14,0 2 1 3 2 W 1019,4 1,9 0 0,0
17.10.2018 03:00:00 6,7 6,5 3,8 9,6 12,3 14,0 0 0 4 2 N 1019,6 4,9 0 0,0
17.10.2018 02:00:00 7,2 7,0 4,2 10,0 12,5 14,0 4 2 9 5 W 1019,7 2,9 0 0,0
17.10.2018 01:00:00 7,9 7,7 5,9 10,3 12,8 14,0 8 4 9 5 WNW 1019,7 3,6 0 0,0
17.10.2018 00:00:00 8,2 8,0 5,2 10,7 13,0 14,0 4 2 5 3 NW 1019,7 4,4 0 0,0
16.10.2018 23:00:00 9,8 9,4 6,6 11,2 13,2 14,0 4 2 6 4 NO 1019,9 8 0 0,0
16.10.2018 22:00:00 9,5 8,8 6,1 11,7 13,4 14,0 2 1 4 2 WZW 1019,8 9 0 0,0
16.10.2018 21:00:00 10,7 9,2 8,3 12,3 13,7 14,0 5 3 6 3 W 1019,8 13 0 0,0
16.10.2018 20:00:00 11,5 8,7 8,7 13,0 13,8 14,0 4 2 5 3 W 1019,6 16 0 0,0
16.10.2018 19:00:00 13,4 9,5 9,0 13,9 13,9 14,0 3 2 8 4 ZW 1019,4 17 0 0,0
16.10.2018 18:00:00 17,4 8,0 13,7 15,0 13,9 14,0 6 3 10 6 ZZO 1019,0 23 25 0,0
16.10.2018 17:00:00 19,1 8,4 19,1 15,8 13,7 14,0 4 2 8 4 OZO 1018,6 27 60 0,0
16.10.2018 16:00:00 19,8 7,5 20,9 16,2 13,4 14,0 5 3 10 5 Z 1018,6 25 38 0,0
16.10.2018 15:00:00 19,1 8,0 19,7 16,1 13,0 14,0 6 3 16 9 ZO 1018,7 25 12 0,0
16.10.2018 14:00:00 20,3 7,6 24,0 15,8 12,5 14,0 6 3 11 6 O 1018,4 23 59 0,0
16.10.2018 13:00:00 19,2 7,8 22,0 14,5 12,0 14,0 8 5 16 9 ZZO 1018,6 22 60 0,0
16.10.2018 12:00:00 17,5 8,1 20,2 12,8 11,7 14,0 5 3 11 6 Z 1019,0 22 60 0,0
16.10.2018 11:00:00 14,6 7,5 16,8 11,1 11,5 14,0 7 4 10 6 ZZO 1018,9 17 60 0,0
16.10.2018 10:00:00 11,3 7,2 14,4 9,6 11,5 14,0 3 2 6 3 O 1018,9 15 60 0,0
16.10.2018 09:00:00 7,9 5,5 8,7 8,8 11,6 14,0 0 0 8 4 N 1018,7 10 30 0,0
16.10.2018 08:00:00 6,1 4,5 4,1 8,7 11,8 14,0 6 3 8 5 ZO 1018,5 10 0 0,0
16.10.2018 07:00:00 6,2 4,9 3,5 8,9 12,0 14,0 2 1 5 3 ZO 1018,0 12 0 0,0
16.10.2018 06:00:00 6,9 4,9 3,5 9,2 12,2 14,0 3 2 9 5 ZO 1017,7 13 0 0,0
16.10.2018 05:00:00 7,9 5,2 5,1 9,5 12,4 14,0 7 4 9 5 ZZO 1017,5 16 0 0,0
16.10.2018 04:00:00 8,5 4,9 5,0 9,8 12,6 14,0 5 3 11 6 ZZW 1017,5 17 0 0,0
16.10.2018 03:00:00 9,2 5,3 5,4 10,1 12,8 14,0 7 4 11 6 ZZO 1017,2 17 0 0,0
16.10.2018 02:00:00 9,6 6,4 6,1 10,4 13,0 14,0 8 4 9 5 ZZO 1017,3 16 0 0,0
16.10.2018 01:00:00 8,9 5,3 6,1 10,8 13,2 14,0 7 4 11 6 ZZW 1017,1 16 0 0,0
16.10.2018 00:00:00 9,1 5,7 6,3 11,2 13,5 14,0 6 3 12 7 ZZO 1017,3 17 0 0,0
15.10.2018 23:00:00 10,8 6,4 7,1 11,7 13,7 14,0 10 5 12 6 ZO 1017,1 18 0 0,0
15.10.2018 22:00:00 11,4 6,5 7,8 12,2 13,9 14,0 5 3 9 5 ZO 1017,0 17 0 0,0
15.10.2018 21:00:00 11,2 6,8 8,5 12,8 14,2 14,0 6 3 15 8 W 1016,9 21 0 0,0
15.10.2018 20:00:00 14,3 6,0 11,1 13,5 14,4 14,0 10 5 13 7 ZO 1016,8 21 0 0,0
15.10.2018 19:00:00 15,8 6,0 11,4 14,5 14,4 13,9 6 3 13 7 ZO 1016,6 22 0 0,0
15.10.2018 18:00:00 18,8 5,7 15,6 15,6 14,4 14,0 8 4 15 8 Z 1016,1 29 34 0,0
15.10.2018 17:00:00 20,6 5,7 20,8 16,4 14,2 14,0 11 6 24 13 Z 1015,9 31 60 0,0
15.10.2018 16:00:00 20,9 5,4 22,3 16,7 13,9 13,9 14 8 26 14 Z 1015,9 23 54 0,0
15.10.2018 15:00:00 20,5 5,4 22,8 16,7 13,5 13,9 16 9 26 14 Z 1016,1 18 60 0,0
15.10.2018 14:00:00 19,6 5,2 22,3 15,9 13,1 13,9 16 8 32 17 ZZO 1016,3 20 57 0,0
15.10.2018 13:00:00 17,6 5,3 19,7 14,7 12,8 13,9 15 8 22 12 ZZO 1016,5 24 49 0,0
15.10.2018 12:00:00 16,5 5,6 17,1 13,5 12,5 13,9 10 5 25 14 ZZO 1016,4 28 44 0,0
15.10.2018 11:00:00 16,1 5,2 18,1 12,3 12,4 13,9 13 7 24 13 Z 1016,5 12 59 0,0
15.10.2018 10:00:00 14,6 5,2 15,8 11,0 12,4 13,9 11 6 19 11 ZZO 1016,3 28 60 0,0
15.10.2018 09:00:00 12,1 5,5 12,2 10,1 12,5 13,9 9 5 16 9 ZZO 1016,2 22 35 0,0
15.10.2018 08:00:00 10,6 5,2 8,2 10,1 12,7 13,9 10 5 16 8 ZZO 1016,0 27 0 0,0
15.10.2018 07:00:00 11,0 5,5 8,3 10,5 12,8 13,9 9 5 21 11 Z 1015,9 31 0 0,0
15.10.2018 06:00:00 11,8 5,6 9,4 10,7 13,0 13,9 12 6 20 11 ZZO 1015,8 30 0 0,0
15.10.2018 05:00:00 11,5 6,1 6,5 11,3 13,2 13,9 5 3 24 13 Z 1015,9 30 0 0,0
15.10.2018 04:00:00 13,3 6,2 11,5 11,6 13,3 13,9 16 9 23 13 ZZO 1015,7 30 0 0,0
15.10.2018 03:00:00 13,7 6,5 11,7 11,8 13,4 13,9 15 8 23 13 ZZO 1015,5 31 0 0,0
15.10.2018 02:00:00 14,4 6,6 12,2 12,0 13,6 13,9 15 8 21 12 ZZO 1015,4 33 0 0,0
15.10.2018 01:00:00 14,8 6,9 12,6 12,3 13,7 13,9 16 8 21 11 ZZO 1015,4 31 0 0,0
15.10.2018 00:00:00 15,9 7,1 13,3 12,5 13,9 13,9 13 7 23 12 ZZO 1015,3 29 0 0,0
14.10.2018 23:00:00 16,1 7,7 12,9 12,7 14,1 13,9 10 6 23 12 ZZO 1015,3 29 0 0,0
14.10.2018 22:00:00 16,1 8,0 12,3 12,9 14,4 13,9 11 6 18 10 ZZO 1015,3 28 0 0,0
14.10.2018 21:00:00 13,4 8,4 8,2 13,5 14,6 13,9 5 3 8 5 ZZO 1015,3 25 0 0,0

tt = temperatuur
td = dauwpunt
tt 5cm = temperatuur 5cm
tt -5cm = temperatuur -5cm
tt -20cm = temperatuur -20cm
tt -100cm = temperatuur -100cm
ff = windsnelheid
fx = windstoten
dd = windrichting
ppp = luchtdruk
vv = zicht
sd = Zonneschijnduur
rr = neerslag

Weerstations in de omgeving